Location: ČR
(50.0000°N, 15.0000°E)
Time: 00:28:43
(UTC+02:00)

Envisat - Pass Details

Date: 30 May 2024
Orbit: 762 x 764 km, 98.3° (Epoch: 24 June)

Event Time Altitude Azimuth Distance (km) Brightness Sun altitude
Rises 04:06:21 0° 17° (NNE) 3,240 7.6 -6.9°
Reaches altitude 10° 04:08:43 10° 22° (NNE) 2,309 6.8 -6.7°
Maximum altitude 04:13:43 57° 101° (E) 899 3.6 -6.1°
Drops below altitude 10° 04:18:41 10° 180° (S) 2,291 5.1 -5.5°
Sets 04:21:01 0° 184° (S) 3,212 5.8 -5.3°
